TimeCET,TemperatureF,Dew PointF,Humidity,Sea Level PressureIn,VisibilityMPH,Wind Direction,Wind SpeedMPH,Gust SpeedMPH,PrecipitationIn,Events,Conditions,WindDirDegrees,DateUTC
12:00 AM,43,29,46,30.38,11,East,4.5,,,,,80,2014-03-09 23:00:00
1:00 AM,41,30,53,30.37,9,East,4.5,,,,,80,2014-03-10 00:00:00
2:00 AM,39,30,61,30.36,7,ENE,4.5,,,,,70,2014-03-10 01:00:00
3:00 AM,38,31,66,30.35,6,ENE,4.5,,,,,60,2014-03-10 02:00:00
4:00 AM,37,30,68,30.33,6,East,4.5,,,,,80,2014-03-10 03:00:00
5:00 AM,37,30,69,30.32,6,East,4.5,,,,,100,2014-03-10 04:00:00
6:00 AM,35,29,72,30.33,5,ENE,2.2,,,,,70,2014-03-10 05:00:00
7:00 AM,34,29,76,30.33,4,ENE,2.2,,,,Mist,70,2014-03-10 06:00:00
8:00 AM,36,31,75,30.31,4,ENE,2.2,,,,Light Haze,70,2014-03-10 07:00:00
9:00 AM,40,31,61,30.30,4,East,6.7,,,,Light Haze,80,2014-03-10 08:00:00
10:00 AM,44,31,49,30.28,4,East,6.7,,,,Light Haze,90,2014-03-10 09:00:00
11:00 AM,48,31,39,30.25,5,ENE,4.5,,,,,70,2014-03-10 10:00:00
12:00 PM,50,31,36,30.22,6,NE,6.7,,,,,40,2014-03-10 11:00:00
1:00 PM,54,32,31,30.20,7,ENE,6.7,,,,,70,2014-03-10 12:00:00
2:00 PM,55,30,26,30.19,8,ENE,8.9,,,,,70,2014-03-10 13:00:00
3:00 PM,56,33,30,30.17,7,NE,6.7,,,,,50,2014-03-10 14:00:00
4:00 PM,56,30,25,30.16,13,NE,11.2,,,,,50,2014-03-10 15:00:00
5:00 PM,55,30,26,30.15,12,ENE,8.9,,,,,60,2014-03-10 16:00:00
6:00 PM,53,28,26,30.17,14,East,6.7,,,,,80,2014-03-10 17:00:00
7:00 PM,49,30,36,30.21,14,ENE,4.5,,,,,70,2014-03-10 18:00:00
8:00 PM,47,31,40,30.23,14,East,4.5,,,,,80,2014-03-10 19:00:00
9:00 PM,44,31,47,30.26,14,ENE,4.5,,,,,60,2014-03-10 20:00:00
10:00 PM,42,30,52,30.27,13,NE,4.5,,,,,50,2014-03-10 21:00:00
11:00 PM,42,29,50,30.26,14,ENE,6.7,,,,,70,2014-03-10 22:00:00